SCP
0 0 0 0 0 0 0 0 0 0 0 0 0 0 0 0 0 0 0 0 0 0 0 0 0 1 1 1 1 0 0 0 0 0 0 0 0 0 0 0 0 -0 -0
0 0 0 0 0 0 0 0 0 0 0 0 0 0 0 0 0 0 0 0 0 0 0 0 0 0 0 1 1 1 0 0 0 0 0 0 0 0 0 0 0 -0 -0
0 0 0 0 0 0 0 0 0 0 0 0 0 0 1 0 0 0 0 1 0 0 0 0 0 0 0 0 1 1 1 0 0 0 0 0 0 0 0 0 0 -0 -0
0 0 0 0 0 0 0 0 0 0 0 1 1 1 1 1 1 1 1 1 0 0 0 0 0 0 0 0 0 0 0 0 0 0 0 0 0 0 0 0 -0 0 0
0 0 0 0 0 0 0 0 1 1 1 1 1 1 1 1 1 1 0 0 0 0 0 0 0 0 0 0 0 0 0 0 0 0 0 0 0 0 0 0 0 0 0
0 0 0 0 0 0 0 0 1 1 1 1 1 0 0 0 1 1 0 0 0 0 0 0 0 0 0 0 0 0 0 0 0 0 0 0 0 0 0 0 0 0 0
0 0 0 0 0 1 1 1 1 1 1 0 1 1 0 0 0 0 0 0 0 0 0 0 0 0 0 0 0 0 0 0 0 0 0 0 0 0 0 0 0 0 0
0 0 0 1 1 1 1 1 2 1 1 2 1 1 0 0 0 0 0 0 0 0 0 0 0 0 0 0 0 0 0 0 0 0 0 0 1 1 1 1 0 0 0
1 1 1 1 1 1 1 2 1 1 2 2 0 1 0 0 0 0 0 0 0 0 0 0 0 0 0 0 0 0 0 0 0 0 0 0 0 1 1 1 1 1 1
1 1 1 1 2 3 2 2 2 2 2 2 1 0 0 0 0 0 0 0 0 0 0 0 0 0 0 0 0 0 0 0 0 0 0 0 0 0 0 0 1 1 1
2 3 2 1 2 3 3 2 2 2 1 2 1 0 0 0 0 0 0 0 0 0 0 0 0 0 0 0 0 0 0 0 0 0 0 0 0 0 0 0 0 1 1
1 1 1 2 3 3 3 3 3 2 2 1 1 1 0 0 0 0 0 0 0 0 0 0 0 0 0 0 0 0 0 0 0 0 0 0 0 0 0 0 0 0 0
0 0 0 1 1 2 2 2 2 2 2 2 1 1 2 1 1 1 1 1 0 0 0 0 0 0 0 0 0 0 0 0 0 0 0 0 0 0 0 0 0 0 0
-0 0 0 0 0 0 1 1 1 1 1 1 1 1 1 1 1 0 0 0 0 0 0 0 0 0 0 0 0 0 0 0 0 0 0 0 0 0 0 0 0 0 0
0 0 0 0 0 0 0 0 0 0 0 0 1 1 1 1 1 0 0 0 0 0 0 0 0 0 0 0 0 0 0 0 0 0 0 0 0 0 0 0 0 0 0
0 0 0 0 0 0 0 0 0 0 0 0 0 0 0 0 0 0 0 0 0 0 0 0 0 0 1 0 0 0 0 0 0 0 0 0 0 0 0 0 0 0 0
0 0 0 0 0 0 0 0 0 0 0 0 0 0 0 0 0 0 1 0 0 0 0 0 0 0 0 0 1 1 0 1 0 0 0 0 0 0 0 0 0 0 0
0 0 0 0 0 0 0 0 0 0 0 0 0 0 0 0 0 0 0 0 0 0 0 0 1 1 0 0 1 1 1 1 1 0 0 0 0 0 0 0 0 0 0
0 0 0 0 0 0 0 0 0 0 0 0 0 0 0 0 0 0 0 0 0 0 0 0 0 0 0 0 0 0 1 1 1 0 0 0 0 0 0 0 0 0 0
0 0 0 0 0 0 0 0 0 0 0 0 0 0 0 0 0 0 0 0 0 0 0 0 0 0 0 0 0 0 0 0 0 0 0 0 0 0 0 0 0 0 0
0 0 0 0 0 0 0 0 0 0 0 0 0 0 0 0 0 0 0 0 0 0 0 0 0 0 0 0 0 0 0 0 0 0 0 0 0 0 0 0 0 0 0
0 0 0 0 0 0 0 0 0 0 0 0 0 0 0 0 0 0 0 0 0 0 0 0 0 0 0 0 0 0 0 0 0 0 0 0 0 0 0 0 0 0 0
0 0 0 0 0 0 0 0 0 0 0 0 0 0 0 0 0 0 0 0 0 0 0 0 0 0 0 0 0 0 0 0 0 0 0 0 0 0 0 0 0 0 0
0 0 0 0 0 0 0 0 0 0 0 0 0 0 0 0 0 0 0 0 0 0 0 0 0 0 0 0 0 0 0 0 0 0 0 0 0 0 0 0 0 0 0
0 0 0 0 0 0 0 0 0 0 0 0 0 0 0 0 0 0 0 0 0 0 0 0 0 0 0 0 0 0 0 0 0 0 0 0 0 0 0 0 0 0 0
0 0 0 0 0 0 -0 0 0 0 0 0 0 0 0 0 0 0 0 0 0 0 0 0 0 0 0 0 0 0 0 0 0 0 0 0 0 0 0 0 0 0 0
Wind_Speed_500mb
32 33 34 34 30 25 23 22 21 19 17 17 19 22 21 20 22 22 20 22 22 22 20 19 20 23 25 26 26 26 26 26 26 25 27 31 31 31 32 31 29 25 28
31 32 34 33 30 28 27 26 25 23 21 22 22 22 23 27 24 23 25 22 22 20 17 20 21 25 28 31 34 33 33 32 30 28 29 31 36 33 33 34 35 31 33
32 32 32 31 29 27 26 28 31 31 29 29 30 30 29 25 26 29 31 31 27 23 20 23 24 24 24 27 30 34 37 37 35 33 35 34 34 36 35 37 37 37 34
34 33 31 30 29 31 31 32 31 36 37 37 39 34 29 30 30 32 34 32 30 26 27 27 27 24 21 20 25 29 32 34 37 35 34 34 33 35 35 36 38 41 37
34 32 33 28 31 34 34 32 34 34 38 37 41 44 38 38 46 43 35 33 35 31 31 30 27 27 22 18 17 18 22 27 31 31 30 37 42 40 38 37 38 40 44
36 33 35 30 30 33 35 33 34 35 38 39 43 46 45 43 47 43 39 41 37 35 33 27 27 27 20 18 18 19 19 20 20 24 25 24 26 25 31 31 35 36 43
34 32 36 32 28 31 29 29 33 41 44 44 55 55 46 43 42 43 41 43 41 37 33 27 27 25 21 16 15 15 17 17 17 21 21 24 25 25 25 26 27 31 35
33 34 34 34 29 32 37 33 42 39 43 41 54 55 38 36 40 44 48 50 46 40 32 29 29 26 21 18 16 12 12 15 14 15 16 19 18 21 22 22 26 26 29
26 34 33 35 35 32 34 34 34 40 43 49 49 53 34 15 12 17 31 41 40 36 33 32 30 27 24 19 17 14 12 14 19 21 19 19 18 19 21 23 26 26 27
21 19 20 24 28 29 28 32 39 42 46 45 57 58 52 43 30 38 41 31 38 40 42 37 34 31 27 24 22 22 18 13 16 20 22 20 23 20 20 22 24 28 28
23 20 28 25 28 35 37 40 46 48 56 50 60 59 55 46 39 33 60 40 49 56 53 48 40 36 32 30 26 27 26 24 22 23 24 22 19 24 30 30 31 29 30
29 34 37 36 32 35 46 53 55 58 58 68 62 62 56 54 47 50 60 60 67 49 57 49 46 40 37 34 30 30 32 33 33 32 28 29 31 31 30 31 32 35 37
26 31 30 36 41 39 40 50 61 65 70 73 65 63 53 64 68 68 65 64 53 51 59 54 49 46 42 39 34 36 38 42 43 41 40 36 37 39 37 33 35 34 34
25 23 25 27 31 38 43 46 52 55 57 68 70 68 63 64 76 73 63 45 48 41 46 54 53 50 46 43 39 40 44 48 51 51 48 47 43 43 47 43 39 42 41
18 21 24 24 28 29 30 31 28 31 40 51 61 64 64 64 66 68 63 66 47 58 57 40 43 49 47 46 47 49 52 54 57 58 55 53 51 50 50 50 48 47 47
18 22 24 25 27 31 31 31 32 33 32 33 36 44 46 46 48 49 52 53 52 46 55 47 41 49 52 51 52 57 64 62 62 62 61 61 61 59 56 53 51 51 50
22 26 30 33 34 37 39 39 38 38 37 36 37 40 43 46 50 49 50 52 52 55 52 53 48 47 69 71 71 76 82 76 66 64 65 68 66 62 62 60 55 54 51
29 34 37 39 41 43 45 45 46 45 45 44 42 41 41 44 49 56 57 57 55 53 57 60 54 61 57 54 55 75 83 74 69 58 66 64 65 68 66 65 59 52 52
38 40 44 46 48 50 51 53 53 53 52 52 53 51 51 50 51 50 50 54 54 57 59 62 78 71 56 54 53 67 75 76 81 76 77 71 69 69 66 63 63 63 58
45 47 50 52 53 54 55 56 59 59 60 60 62 62 62 61 60 58 57 53 48 46 44 51 58 61 53 51 53 56 62 56 60 54 55 64 63 64 72 74 71 68 61
51 53 55 54 53 51 43 53 56 56 56 56 57 60 61 64 68 68 66 51 47 50 52 57 62 61 60 58 59 56 61 56 54 50 55 52 50 52 55 57 65 62 52
46 43 43 40 38 38 42 46 51 51 51 50 48 49 52 54 55 62 71 76 77 66 62 62 66 68 65 60 58 57 58 57 58 48 53 55 45 51 55 56 54 51 47
34 35 36 37 36 38 41 45 49 51 51 50 50 46 43 35 43 41 42 48 52 60 69 70 70 68 67 62 62 64 63 62 60 54 52 59 54 60 59 57 62 67 60
37 35 32 33 34 34 38 41 45 48 48 49 48 48 44 46 43 46 46 47 44 40 45 46 52 59 62 60 62 64 63 63 56 50 46 62 49 57 51 52 57 70 71
33 32 31 32 31 34 39 43 49 51 48 47 43 45 45 43 47 49 47 49 53 58 54 57 62 61 63 61 61 62 59 44 49 46 41 51 46 48 49 49 41 43 42
30 34 31 28 29 32 32 40 45 50 55 57 54 48 46 45 44 46 46 48 53 59 50 50 47 45 45 53 51 47 45 45 41 37 33 43 38 40 36 32 28 36 41
Wind_Direction_500mb
234 233 232 234 234 240 245 250 252 262 253 253 252 253 253 247 246 247 244 252 260 263 269 276 281 280 283 284 284 281 280 284 285 286 286 281 275 276 279 278 276 274 268
239 236 236 236 237 242 246 246 250 258 260 262 264 265 262 251 256 255 258 271 260 264 268 284 288 287 284 281 278 276 274 270 270 271 273 276 274 271 269 272 273 275 274
237 236 238 239 239 242 243 248 251 260 266 267 270 275 269 253 259 264 267 268 262 266 288 296 302 301 294 285 280 276 276 279 278 271 270 265 270 272 271 264 267 274 269
236 238 239 238 241 240 247 253 258 265 269 271 274 277 275 257 262 269 269 261 261 272 288 299 308 310 309 309 299 288 285 285 287 284 276 271 267 269 271 276 268 266 268
240 241 244 241 239 242 247 252 264 276 283 286 284 279 276 272 273 274 254 253 264 272 281 295 302 306 313 321 318 310 305 301 302 303 288 266 276 270 263 273 271 259 264
247 246 247 239 234 241 248 257 270 279 284 291 291 287 281 279 281 257 249 253 257 266 277 284 294 300 313 323 328 327 330 330 315 318 311 292 287 269 263 264 262 259 257
246 234 242 242 239 251 261 271 290 273 287 297 295 295 294 281 276 251 254 256 254 259 264 271 282 287 301 318 322 328 326 329 324 331 335 306 294 289 286 278 265 262 257
254 260 258 259 253 250 254 265 258 264 273 287 286 293 298 287 275 258 254 251 251 250 252 266 270 279 289 303 314 322 328 337 337 339 333 327 315 290 285 285 284 279 270
271 270 277 272 258 257 262 274 273 266 286 289 287 285 283 254 296 274 263 256 247 245 249 260 262 265 265 275 289 297 302 306 306 307 312 318 325 317 304 288 283 278 273
265 244 265 266 266 271 272 269 274 279 278 279 284 282 277 263 266 298 277 281 258 254 257 256 260 256 255 261 273 286 296 297 298 300 302 300 301 305 300 298 283 275 270
276 274 266 260 263 270 270 271 272 286 282 278 274 280 281 276 259 257 284 276 272 267 255 261 252 250 249 253 257 270 282 294 296 298 303 304 301 306 307 291 285 283 276
273 275 277 278 277 262 263 265 265 260 276 277 265 265 273 277 278 259 248 271 262 266 260 249 248 246 245 247 250 260 270 279 288 293 293 298 300 303 318 316 296 287 283
291 280 278 274 273 271 261 257 267 263 264 269 264 263 258 271 276 267 257 261 253 261 255 252 242 243 243 245 247 255 263 273 279 283 286 289 293 299 301 311 306 305 304
312 313 311 304 296 288 284 278 271 270 262 260 261 265 266 264 268 267 258 256 254 257 255 245 243 238 242 248 253 257 262 267 271 276 280 281 286 290 292 293 298 298 296
320 309 303 302 304 304 304 302 296 283 275 264 258 259 264 266 265 269 258 254 250 261 254 254 238 239 242 253 262 267 267 266 265 267 270 272 282 286 284 286 289 290 294
328 317 310 307 307 308 310 309 307 302 299 295 284 274 266 263 262 262 261 260 255 253 261 252 250 245 245 259 264 272 270 269 263 263 264 264 272 279 280 282 282 284 288
317 309 309 310 309 305 302 301 299 299 297 292 285 279 275 275 272 267 261 257 254 253 254 256 253 266 265 276 263 262 267 268 267 265 262 266 271 269 274 277 279 276 277
309 307 307 304 303 301 300 298 297 295 295 291 289 287 282 273 267 263 265 268 266 261 258 260 259 262 267 268 269 265 267 267 269 267 266 262 263 265 268 271 273 267 270
315 313 308 306 303 301 302 300 297 294 291 289 287 285 282 281 280 278 274 272 271 268 269 269 267 274 269 275 270 267 265 264 264 268 271 268 265 265 265 264 265 270 272
312 311 307 305 302 301 298 293 290 289 288 285 283 280 278 276 274 273 272 272 272 268 266 266 266 267 268 265 261 263 264 263 265 265 266 265 259 262 266 265 264 266 266
313 311 310 308 308 308 302 300 298 297 295 291 286 282 277 273 271 271 271 268 266 268 267 266 267 268 264 261 259 265 265 266 264 264 267 265 265 265 263 264 262 262 257
315 315 316 319 322 319 316 314 312 312 310 305 300 297 293 290 283 276 269 266 263 262 263 262 265 265 264 262 264 264 263 264 268 264 268 269 266 261 259 256 258 253 254
324 323 323 324 327 324 323 322 318 317 313 311 308 306 304 299 293 289 283 277 271 265 262 263 265 264 267 263 264 263 262 263 265 267 267 265 265 266 261 257 253 252 250
333 335 341 346 351 355 353 349 346 343 335 328 317 308 303 299 296 291 292 287 280 274 269 267 265 269 267 268 263 262 264 265 266 267 263 269 269 265 265 259 257 256 253
1 3 1 8 24 17 4 356 349 344 335 329 322 318 318 307 300 294 291 286 282 279 279 279 277 273 269 266 262 260 258 269 271 269 267 263 267 267 265 261 255 255 249
6 12 20 12 16 9 9 0 353 350 352 351 353 346 336 327 320 312 304 290 283 281 282 281 278 280 275 265 258 255 262 258 261 271 262 257 266 268 275 270 252 252 253
Wind_Speed_850mb
32 33 34 34 30 25 23 22 21 19 17 17 19 22 21 20 22 22 20 22 22 22 20 19 20 23 25 26 26 26 26 26 26 25 27 31 31 31 32 31 29 25 28
31 32 34 33 30 28 27 26 25 23 21 22 22 22 23 27 24 23 25 22 22 20 17 20 21 25 28 31 34 33 33 32 30 28 29 31 36 33 33 34 35 31 33
32 32 32 31 29 27 26 28 31 31 29 29 30 30 29 25 26 29 31 31 27 23 20 23 24 24 24 27 30 34 37 37 35 33 35 34 34 36 35 37 37 37 34
34 33 31 30 29 31 31 32 31 36 37 37 39 34 29 30 30 32 34 32 30 26 27 27 27 24 21 20 25 29 32 34 37 35 34 34 33 35 35 36 38 41 37
34 32 33 28 31 34 34 32 34 34 38 37 41 44 38 38 46 43 35 33 35 31 31 30 27 27 22 18 17 18 22 27 31 31 30 37 42 40 38 37 38 40 44
36 33 35 30 30 33 35 33 34 35 38 39 43 46 45 43 47 43 39 41 37 35 33 27 27 27 20 18 18 19 19 20 20 24 25 24 26 25 31 31 35 36 43
34 32 36 32 28 31 29 29 33 41 44 44 55 55 46 43 42 43 41 43 41 37 33 27 27 25 21 16 15 15 17 17 17 21 21 24 25 25 25 26 27 31 35
33 34 34 34 29 32 37 33 42 39 43 41 54 55 38 36 40 44 48 50 46 40 32 29 29 26 21 18 16 12 12 15 14 15 16 19 18 21 22 22 26 26 29
26 34 33 35 35 32 34 34 34 40 43 49 49 53 34 15 12 17 31 41 40 36 33 32 30 27 24 19 17 14 12 14 19 21 19 19 18 19 21 23 26 26 27
21 19 20 24 28 29 28 32 39 42 46 45 57 58 52 43 30 38 41 31 38 40 42 37 34 31 27 24 22 22 18 13 16 20 22 20 23 20 20 22 24 28 28
23 20 28 25 28 35 37 40 46 48 56 50 60 59 55 46 39 33 60 40 49 56 53 48 40 36 32 30 26 27 26 24 22 23 24 22 19 24 30 30 31 29 30
29 34 37 36 32 35 46 53 55 58 58 68 62 62 56 54 47 50 60 60 67 49 57 49 46 40 37 34 30 30 32 33 33 32 28 29 31 31 30 31 32 35 37
26 31 30 36 41 39 40 50 61 65 70 73 65 63 53 64 68 68 65 64 53 51 59 54 49 46 42 39 34 36 38 42 43 41 40 36 37 39 37 33 35 34 34
25 23 25 27 31 38 43 46 52 55 57 68 70 68 63 64 76 73 63 45 48 41 46 54 53 50 46 43 39 40 44 48 51 51 48 47 43 43 47 43 39 42 41
18 21 24 24 28 29 30 31 28 31 40 51 61 64 64 64 66 68 63 66 47 58 57 40 43 49 47 46 47 49 52 54 57 58 55 53 51 50 50 50 48 47 47
18 22 24 25 27 31 31 31 32 33 32 33 36 44 46 46 48 49 52 53 52 46 55 47 41 49 52 51 52 57 64 62 62 62 61 61 61 59 56 53 51 51 50
22 26 30 33 34 37 39 39 38 38 37 36 37 40 43 46 50 49 50 52 52 55 52 53 48 47 69 71 71 76 82 76 66 64 65 68 66 62 62 60 55 54 51
29 34 37 39 41 43 45 45 46 45 45 44 42 41 41 44 49 56 57 57 55 53 57 60 54 61 57 54 55 75 83 74 69 58 66 64 65 68 66 65 59 52 52
38 40 44 46 48 50 51 53 53 53 52 52 53 51 51 50 51 50 50 54 54 57 59 62 78 71 56 54 53 67 75 76 81 76 77 71 69 69 66 63 63 63 58
45 47 50 52 53 54 55 56 59 59 60 60 62 62 62 61 60 58 57 53 48 46 44 51 58 61 53 51 53 56 62 56 60 54 55 64 63 64 72 74 71 68 61
51 53 55 54 53 51 43 53 56 56 56 56 57 60 61 64 68 68 66 51 47 50 52 57 62 61 60 58 59 56 61 56 54 50 55 52 50 52 55 57 65 62 52
46 43 43 40 38 38 42 46 51 51 51 50 48 49 52 54 55 62 71 76 77 66 62 62 66 68 65 60 58 57 58 57 58 48 53 55 45 51 55 56 54 51 47
34 35 36 37 36 38 41 45 49 51 51 50 50 46 43 35 43 41 42 48 52 60 69 70 70 68 67 62 62 64 63 62 60 54 52 59 54 60 59 57 62 67 60
37 35 32 33 34 34 38 41 45 48 48 49 48 48 44 46 43 46 46 47 44 40 45 46 52 59 62 60 62 64 63 63 56 50 46 62 49 57 51 52 57 70 71
33 32 31 32 31 34 39 43 49 51 48 47 43 45 45 43 47 49 47 49 53 58 54 57 62 61 63 61 61 62 59 44 49 46 41 51 46 48 49 49 41 43 42
30 34 31 28 29 32 32 40 45 50 55 57 54 48 46 45 44 46 46 48 53 59 50 50 47 45 45 53 51 47 45 45 41 37 33 43 38 40 36 32 28 36 41
Wind_Direction_850mb
234 233 232 234 234 240 245 250 252 262 253 253 252 253 253 247 246 247 244 252 260 263 269 276 281 280 283 284 284 281 280 284 285 286 286 281 275 276 279 278 276 274 268
239 236 236 236 237 242 246 246 250 258 260 262 264 265 262 251 256 255 258 271 260 264 268 284 288 287 284 281 278 276 274 270 270 271 273 276 274 271 269 272 273 275 274
237 236 238 239 239 242 243 248 251 260 266 267 270 275 269 253 259 264 267 268 262 266 288 296 302 301 294 285 280 276 276 279 278 271 270 265 270 272 271 264 267 274 269
236 238 239 238 241 240 247 253 258 265 269 271 274 277 275 257 262 269 269 261 261 272 288 299 308 310 309 309 299 288 285 285 287 284 276 271 267 269 271 276 268 266 268
240 241 244 241 239 242 247 252 264 276 283 286 284 279 276 272 273 274 254 253 264 272 281 295 302 306 313 321 318 310 305 301 302 303 288 266 276 270 263 273 271 259 264
247 246 247 239 234 241 248 257 270 279 284 291 291 287 281 279 281 257 249 253 257 266 277 284 294 300 313 323 328 327 330 330 315 318 311 292 287 269 263 264 262 259 257
246 234 242 242 239 251 261 271 290 273 287 297 295 295 294 281 276 251 254 256 254 259 264 271 282 287 301 318 322 328 326 329 324 331 335 306 294 289 286 278 265 262 257
254 260 258 259 253 250 254 265 258 264 273 287 286 293 298 287 275 258 254 251 251 250 252 266 270 279 289 303 314 322 328 337 337 339 333 327 315 290 285 285 284 279 270
271 270 277 272 258 257 262 274 273 266 286 289 287 285 283 254 296 274 263 256 247 245 249 260 262 265 265 275 289 297 302 306 306 307 312 318 325 317 304 288 283 278 273
265 244 265 266 266 271 272 269 274 279 278 279 284 282 277 263 266 298 277 281 258 254 257 256 260 256 255 261 273 286 296 297 298 300 302 300 301 305 300 298 283 275 270
276 274 266 260 263 270 270 271 272 286 282 278 274 280 281 276 259 257 284 276 272 267 255 261 252 250 249 253 257 270 282 294 296 298 303 304 301 306 307 291 285 283 276
273 275 277 278 277 262 263 265 265 260 276 277 265 265 273 277 278 259 248 271 262 266 260 249 248 246 245 247 250 260 270 279 288 293 293 298 300 303 318 316 296 287 283
291 280 278 274 273 271 261 257 267 263 264 269 264 263 258 271 276 267 257 261 253 261 255 252 242 243 243 245 247 255 263 273 279 283 286 289 293 299 301 311 306 305 304
312 313 311 304 296 288 284 278 271 270 262 260 261 265 266 264 268 267 258 256 254 257 255 245 243 238 242 248 253 257 262 267 271 276 280 281 286 290 292 293 298 298 296
320 309 303 302 304 304 304 302 296 283 275 264 258 259 264 266 265 269 258 254 250 261 254 254 238 239 242 253 262 267 267 266 265 267 270 272 282 286 284 286 289 290 294
328 317 310 307 307 308 310 309 307 302 299 295 284 274 266 263 262 262 261 260 255 253 261 252 250 245 245 259 264 272 270 269 263 263 264 264 272 279 280 282 282 284 288
317 309 309 310 309 305 302 301 299 299 297 292 285 279 275 275 272 267 261 257 254 253 254 256 253 266 265 276 263 262 267 268 267 265 262 266 271 269 274 277 279 276 277
309 307 307 304 303 301 300 298 297 295 295 291 289 287 282 273 267 263 265 268 266 261 258 260 259 262 267 268 269 265 267 267 269 267 266 262 263 265 268 271 273 267 270
315 313 308 306 303 301 302 300 297 294 291 289 287 285 282 281 280 278 274 272 271 268 269 269 267 274 269 275 270 267 265 264 264 268 271 268 265 265 265 264 265 270 272
312 311 307 305 302 301 298 293 290 289 288 285 283 280 278 276 274 273 272 272 272 268 266 266 266 267 268 265 261 263 264 263 265 265 266 265 259 262 266 265 264 266 266
313 311 310 308 308 308 302 300 298 297 295 291 286 282 277 273 271 271 271 268 266 268 267 266 267 268 264 261 259 265 265 266 264 264 267 265 265 265 263 264 262 262 257
315 315 316 319 322 319 316 314 312 312 310 305 300 297 293 290 283 276 269 266 263 262 263 262 265 265 264 262 264 264 263 264 268 264 268 269 266 261 259 256 258 253 254
324 323 323 324 327 324 323 322 318 317 313 311 308 306 304 299 293 289 283 277 271 265 262 263 265 264 267 263 264 263 262 263 265 267 267 265 265 266 261 257 253 252 250
333 335 341 346 351 355 353 349 346 343 335 328 317 308 303 299 296 291 292 287 280 274 269 267 265 269 267 268 263 262 264 265 266 267 263 269 269 265 265 259 257 256 253
1 3 1 8 24 17 4 356 349 344 335 329 322 318 318 307 300 294 291 286 282 279 279 279 277 273 269 266 262 260 258 269 271 269 267 263 267 267 265 261 255 255 249
6 12 20 12 16 9 9 0 353 350 352 351 353 346 336 327 320 312 304 290 283 281 282 281 278 280 275 265 258 255 262 258 261 271 262 257 266 268 275 270 252 252 253